Content
SEND FEEDBACK

Daily
Averages
Monthly
Summary
United States of America

EATONVILLE, WASHINGTON


Home > North America > United States > Washington
Elevation: 1300 feet     Latitude: 46 48N     Longitude: 122 19W

WEATHER
 
SELECT A DAY
Number of Records: 235,797;   Date Range: 1/1/95 - 10/20/14
 
SHARE

PRINT THIS DATA

[ ← Previous Day ]
WEATHER ALMANAC - JANUARY 23, 2013
[ Next Day → ]
[ °C ]   °F
Weather ElementAverageHighLow
Temperature38.5 °F41 °F (8:23 pm)35.1 °F (2:58 am)
Dewpoint37.5 °F39.6 °F (3:58 pm)34.5 °F (9:58 am)
Humidity96 %100 % (12:49 pm)87 % (9:58 am)
Barometer29.97 in30.17 in (11:58 pm)29.85 in (12:49 pm)
Wind Speed5.6 mph16.1 mph (5:58 pm)
Wind Gust18.4 mph (3:58 pm)
Weather ElementAverage
Visibility9.4 mi
Wind DirectionSSW (195.1 °)

Weather ElementTotal
Precipitation0.13 in
Heating Degree Days27 (Base 65)
Averaged from 35 records on January 23, 2013
WEATHER CONDITIONS BREAKOUT
WIND DIRECTION BREAKOUT
WEATHER BY HOUR - JANUARY 23, 2013
[ °C ]   °F
Local TimeTemperatureDewpointHumidityBarometerVisibilityWind DirectionWind SpeedGust SpeedPrecipitationEventsConditions
1:58 AM35.4 °F35.2 °F99 %29.94 in10.0 miNorth (350°)1.2 mphClear
2:58 AM35.1 °F34.9 °F99 %29.96 in10.0 miNorth (360°)1.2 mphClear
3:58 AM35.8 °F34.7 °F96 %29.93 in10.0 miCalmClear
4:58 AM35.8 °F34.7 °F96 %29.91 in10.0 miNNW (340°)4.6 mphClear
5:58 AM36.0 °F34.9 °F96 %29.93 in10.0 miCalmClear
6:58 AM36.7 °F34.7 °F93 %29.92 in10.0 miNorth (350°)2.3 mphClear
7:58 AM36.3 °F35.1 °F95 %29.88 in10.0 miNorth (350°)2.3 mphClear
8:58 AM36.1 °F35.6 °F98 %29.89 in10.0 miCalmClear
9:58 AM37.9 °F34.5 °F87 %29.90 in10.0 miCalmClear
10:58 AM38.5 °F35.6 °F89 %29.92 in10.0 miCalmClear
11:36 AM39.2 °F35.6 °F87 %29.87 in10.0 miNNW (340°)2.3 mphPartly Cloudy
11:46 AM39.2 °F35.6 °F87 %29.86 in10.0 miCalmScattered Clouds
11:58 AM39.4 °F36.7 °F90 %29.87 in10.0 miCalm0.01 inMostly Cloudy
12:49 PM39.2 °F39.2 °F100 %29.85 in10.0 miNNW (340°)3.5 mphLight Drizzle
12:58 PM39.6 °F38.8 °F97 %29.87 in10.0 miNNW (340°)4.6 mph0.01 inLight Drizzle
12:59 PM39.2 °F39.2 °F100 %29.86 in10.0 miNNW (340°)4.6 mphOvercast
1:17 PM39.2 °F39.2 °F100 %29.85 in5.0 miNNW (340°)4.6 mphRainLight Rain
1:58 PM39.0 °F38.8 °F99 %29.87 in5.0 miNNW (340°)3.5 mph0.03 inRainLight Rain
2:58 PM38.8 °F38.7 °F99 %29.90 in5.0 miNNW (340°)4.6 mph0.06 inLight Drizzle
3:58 PM40.1 °F39.6 °F98 %29.93 in6.0 miSouth (180°)12.7 mph18.4 mph0.01 inOvercast
4:58 PM40.1 °F38.8 °F95 %29.96 in9.0 miSSE (160°)10.4 mph0.01 inOvercast
5:23 PM39.2 °F39.2 °F100 %29.95 in10.0 miSSE (160°)11.5 mphMostly Cloudy
5:58 PM39.7 °F38.7 °F96 %29.97 in10.0 miSSE (160°)16.1 mphOvercast
6:58 PM39.7 °F38.7 °F96 %30.00 in10.0 miSSE (160°)10.4 mphOvercast
7:48 PM39.2 °F39.2 °F100 %30.02 in10.0 miSSE (160°)8.1 mphOvercast
7:58 PM40.3 °F39.0 °F95 %30.05 in10.0 miSSE (160°)8.1 mphOvercast
8:23 PM41.0 °F39.2 °F93 %30.04 in10.0 miSSE (160°)5.8 mphMostly Cloudy
8:58 PM39.7 °F37.8 °F93 %30.08 in10.0 miSouth (190°)8.1 mphMostly Cloudy
9:58 PM39.6 °F38.7 °F97 %30.12 in10.0 miSouth (190°)10.4 mphOvercast
10:23 PM39.2 °F39.2 °F100 %30.11 in10.0 miSouth (170°)10.4 mphMostly Cloudy
10:33 PM39.2 °F39.2 °F100 %30.11 in10.0 miSouth (170°)8.1 mphMostly Cloudy
10:38 PM39.2 °F39.2 °F100 %30.11 in10.0 miSouth (170°)8.1 mphOvercast
10:58 PM39.7 °F39.2 °F98 %30.14 in10.0 miSouth (170°)10.4 mphOvercast
11:33 PM39.2 °F37.4 °F93 %30.14 in10.0 miSouth (170°)9.2 mphScattered Clouds
11:58 PM36.1 °F36.0 °F99 %30.17 in10.0 miSouth (170°)8.1 mphPartly Cloudy
Hourly data recorded from KGRF, located miles away from Eatonville, Washington







STORIES FROM OUR PARTNERS